Ocean City, MD

11:20 AM EST on December 12, 2017 (GMT -0500)
Ocean City Municipal

Weather History for KOXB - June, 2013

Change the Weather History Date:

Thursday, June 27, 2013

  Actual Average (KSBY) Record (KSBY)
Temperature  
Mean Temperature 78 °F -  
Max Temperature 84 °F 84 °F 99 °F (1952)
Min Temperature 73 °F 63 °F 48 °F (1965)
Cooling Degree Days 14    
Growing Degree Days 28 (Base 50)    
Moisture  
Dew Point 72 °F    
Average Humidity 84    
Maximum Humidity 96    
Minimum Humidity 69    
Precipitation  
Precipitation 0.14 in - - ()
Sea Level Pressure  
Sea Level Pressure 29.76 in    
Wind  
Wind Speed 8 mph (SW)    
Max Wind Speed 18 mph    
Max Gust Speed 33 mph    
Visibility 9 miles    
Events Rain    
Averages and records for this station are not official NWS values.
T = Trace of Precipitation, MM = Missing Value Source: NWS Daily Summary

Daily Weather History Graph

Daily Weather History Graph

Search for Another Location

Airport or City:

Trip Planner

Search our weather history database for the weather conditions in past years. The results will help you decide how hot, cold, wet, or windy it might be!

Date:

Astronomy

Jun. 27, 2013 Rise Set
Actual Time 5:39 AM EDT 8:28 PM EDT
Civil Twilight 5:07 AM EDT 8:59 PM EDT
Nautical Twilight 4:27 AM EDT 9:39 PM EDT
Astronomical Twilight 3:42 AM EDT 10:24 PM EDT
Moon 11:28 PM EDT (6/27) 10:33 AM EDT (6/27)
Length of Visible Light 15h 52m
Length of Day
14h 49m
Waning Gibbous, 76% of the Moon is Illuminated
Jun 27
Waning Gibbous
Jun 30
Last Quarter
Jul 8
New
Jul 15
First Quarter
Jul 22
Full

Hourly Weather History & Observations

Time (EDT) Temp. Heat Index Dew Point Humidity Pressure Visibility Wind Dir Wind Speed Gust Speed Precip Events Conditions
12:53 AM 78.1 °F - 73.0 °F 84% 29.82 in 10.0 mi West 4.6 mph - N/A   Clear
1:53 AM 77.0 °F - 72.0 °F 84% 29.81 in 10.0 mi West 4.6 mph - N/A   Clear
2:53 AM 75.0 °F - 72.0 °F 90% 29.82 in 10.0 mi West 4.6 mph - N/A   Clear
3:53 AM 75.0 °F - 71.1 °F 87% 29.83 in 10.0 mi WSW 8.1 mph - N/A   Clear
4:53 AM 73.9 °F - 70.0 °F 87% 29.84 in 10.0 mi West 9.2 mph - N/A   Partly Cloudy
5:53 AM 73.0 °F - 70.0 °F 90% 29.83 in 10.0 mi WSW 4.6 mph - N/A   Clear
6:53 AM 73.9 °F - 71.1 °F 91% 29.83 in 10.0 mi SW 5.8 mph - N/A   Clear
7:53 AM 77.0 °F - 71.1 °F 82% 29.83 in 10.0 mi WSW 10.4 mph - N/A   Clear
8:53 AM 79.0 °F - 72.0 °F 79% 29.82 in 10.0 mi SW 8.1 mph - N/A   Clear
9:46 AM 78.8 °F - 73.4 °F 83% 29.80 in 10.0 mi South 8.1 mph - N/A   Mostly Cloudy
9:53 AM 78.1 °F - 73.0 °F 84% 29.81 in 10.0 mi South 5.8 mph - N/A   Scattered Clouds
10:53 AM 84.0 °F 90.2 °F 73.0 °F 69% 29.79 in 10.0 mi Variable 6.9 mph - N/A   Clear
11:53 AM 78.1 °F - 71.1 °F 79% 29.79 in 10.0 mi South 10.4 mph 19.6 mph N/A   Clear
12:53 PM 78.1 °F - 71.1 °F 79% 29.77 in 10.0 mi South 8.1 mph 17.3 mph N/A   Clear
1:53 PM 78.1 °F - 72.0 °F 81% 29.76 in 10.0 mi South 9.2 mph 18.4 mph N/A   Clear
2:53 PM 78.1 °F - 73.0 °F 84% 29.75 in 9.0 mi SSW 12.7 mph 18.4 mph N/A   Clear
3:53 PM 79.0 °F - 73.9 °F 84% 29.71 in 9.0 mi SSW 11.5 mph 21.9 mph N/A   Clear
4:53 PM 79.0 °F - 73.9 °F 84% 29.68 in 10.0 mi SSW 11.5 mph 21.9 mph N/A   Clear
5:53 PM 79.0 °F - 75.0 °F 88% 29.66 in 7.0 mi SSW 10.4 mph 20.7 mph N/A   Partly Cloudy
6:53 PM 79.0 °F - 75.0 °F 88% 29.65 in 6.0 mi SSW 10.4 mph 16.1 mph N/A   Clear
7:53 PM 81.0 °F 86.2 °F 73.9 °F 79% 29.67 in 9.0 mi WSW 13.8 mph 20.7 mph N/A   Scattered Clouds
8:53 PM 81.0 °F 85.8 °F 73.0 °F 77% 29.67 in 10.0 mi SW 8.1 mph - N/A   Clear
9:53 PM 77.0 °F - 70.0 °F 79% 29.71 in 1.8 mi SW 18.4 mph 33.4 mph 0.12 in Rain Light Rain
10:03 PM 75.2 °F - 71.6 °F 89% 29.70 in 4.0 mi WSW 9.2 mph 19.6 mph 0.02 in Rain Light Rain
10:53 PM 75.0 °F - 73.0 °F 94% 29.69 in 10.0 mi SW 5.8 mph - 0.02 in   Partly Cloudy
11:53 PM 73.0 °F - 72.0 °F 96% 29.67 in 7.0 mi SSW 6.9 mph - N/A   Scattered Clouds